When you browse on this site, cookies collect data to enhance your experience and personalize the content and advertising you see.
Visit our Privacy Policy to learn more. By continuing to use the site, you agree to this use of cookies and data.
EN

Hourly Weather Potichok

Today, 9 August, Sunday

Time Temperature Precipitation Wind Pressure Humidity
00:00 +21°C° 0 mm 4 mps 753 mmHg 65%
01:00 +20°C° 0 mm 4 mps 753 mmHg 69%
02:00 +19°C° 0 mm 4 mps 753 mmHg 71%
03:00 +19°C° 0 mm 4 mps 753 mmHg 73%
04:00 +18°C° 0 mm 3 mps 753 mmHg 76%
05:00 +18°C° 0 mm 3 mps 753 mmHg 78%
06:00 +20°C° 0 mm 3 mps 753 mmHg 71%
07:00 +22°C° 0 mm 4 mps 753 mmHg 64%
08:00 +25°C° 0 mm 4 mps 753 mmHg 54%
09:00 +26°C° 0 mm 4 mps 753 mmHg 50%
10:00 +27°C° 0 mm 4 mps 753 mmHg 45%
11:00 +29°C° 0 mm 4 mps 753 mmHg 40%
12:00 +29°C° 0 mm 4 mps 753 mmHg 40%
13:00 +29°C° 0 mm 4 mps 752 mmHg 39%
14:00 +29°C° 0 mm 4 mps 752 mmHg 39%
15:00 +29°C° 0 mm 4 mps 752 mmHg 40%
16:00 +28°C° 0 mm 4 mps 752 mmHg 40%
17:00 +28°C° 0 mm 3 mps 752 mmHg 41%
18:00 +27°C° 0 mm 3 mps 752 mmHg 45%
19:00 +25°C° 0 mm 3 mps 752 mmHg 50%
20:00 +24°C° 0 mm 2 mps 752 mmHg 54%
21:00 +23°C° 0 mm 2 mps 752 mmHg 58%
22:00 +21°C° 0 mm 2 mps 752 mmHg 62%
23:00 +20°C° 0 mm 2 mps 752 mmHg 66%

Tomorrow, 10 August, Monday

Time Temperature Precipitation Wind Pressure Humidity
00:00 +20°C° 0 mm 2 mps 752 mmHg 69%
01:00 +20°C° 0 mm 2 mps 752 mmHg 71%
02:00 +20°C° 0 mm 2 mps 752 mmHg 73%
03:00 +20°C° 0 mm 1 mps 752 mmHg 75%
04:00 +20°C° 0 mm 1 mps 752 mmHg 77%
05:00 +20°C° 0 mm 1 mps 752 mmHg 78%
06:00 +21°C° 0 mm 1 mps 752 mmHg 72%
07:00 +23°C° 0 mm 1 mps 752 mmHg 65%
08:00 +25°C° 0 mm 1 mps 752 mmHg 59%
09:00 +26°C° 0.1 mm 1 mps 752 mmHg 53%
10:00 +27°C° 0.1 mm 2 mps 752 mmHg 48%
11:00 +29°C° 0.1 mm 2 mps 752 mmHg 43%
12:00 +29°C° 0 mm 2 mps 752 mmHg 43%
13:00 +29°C° 0 mm 2 mps 752 mmHg 43%
14:00 +29°C° 0 mm 2 mps 751 mmHg 42%
15:00 +29°C° 0 mm 2 mps 751 mmHg 43%
16:00 +28°C° 0 mm 1 mps 751 mmHg 45%
17:00 +28°C° 0 mm 1 mps 751 mmHg 46%
18:00 +27°C° 0 mm 1 mps 751 mmHg 50%
19:00 +25°C° 0 mm 1 mps 751 mmHg 55%
20:00 +24°C° 0 mm 1 mps 751 mmHg 60%
21:00 +23°C° 0.2 mm 1 mps 751 mmHg 65%
22:00 +22°C° 0.2 mm 1 mps 752 mmHg 70%
23:00 +21°C° 0.2 mm 1 mps 752 mmHg 76%

Day after tomorrow, 11 August, Tuesday

Time Temperature Precipitation Wind Pressure Humidity
00:00 +20°C° 0.1 mm 1 mps 752 mmHg 77%
01:00 +20°C° 0.1 mm 1 mps 752 mmHg 79%
02:00 +20°C° 0.1 mm 1 mps 751 mmHg 80%
03:00 +19°C° 0 mm 1 mps 751 mmHg 81%
04:00 +19°C° 0 mm 1 mps 751 mmHg 83%
05:00 +19°C° 0 mm 1 mps 751 mmHg 84%
06:00 +21°C° 0 mm 1 mps 751 mmHg 77%
07:00 +23°C° 0 mm 1 mps 751 mmHg 69%
08:00 +25°C° 0 mm 2 mps 751 mmHg 62%
09:00 +26°C° 0.1 mm 2 mps 751 mmHg 55%
10:00 +28°C° 0.1 mm 2 mps 751 mmHg 49%
11:00 +29°C° 0.1 mm 3 mps 751 mmHg 42%
12:00 +30°C° 0 mm 3 mps 751 mmHg 41%
13:00 +30°C° 0 mm 3 mps 751 mmHg 40%
14:00 +30°C° 0 mm 3 mps 751 mmHg 38%
15:00 +30°C° 0 mm 2 mps 751 mmHg 40%
16:00 +29°C° 0 mm 2 mps 751 mmHg 42%
17:00 +29°C° 0 mm 2 mps 751 mmHg 44%
18:00 +28°C° 0 mm 2 mps 751 mmHg 49%
19:00 +26°C° 0 mm 1 mps 750 mmHg 53%
20:00 +25°C° 0 mm 1 mps 750 mmHg 57%
21:00 +23°C° 0.5 mm 1 mps 751 mmHg 65%
22:00 +21°C° 0.5 mm 2 mps 751 mmHg 73%
23:00 +20°C° 0.5 mm 2 mps 751 mmHg 81%

12 August, Wednesday

Time Temperature Precipitation Wind Pressure Humidity
00:00 +19°C° 0.1 mm 2 mps 751 mmHg 84%
01:00 +19°C° 0.1 mm 2 mps 751 mmHg 87%
02:00 +18°C° 0.1 mm 3 mps 751 mmHg 90%
03:00 +18°C° 0 mm 3 mps 751 mmHg 91%
04:00 +17°C° 0 mm 3 mps 751 mmHg 92%
05:00 +17°C° 0 mm 3 mps 751 mmHg 93%
06:00 +18°C° 0 mm 4 mps 751 mmHg 87%
07:00 +19°C° 0 mm 4 mps 751 mmHg 81%
08:00 +19°C° 0 mm 4 mps 751 mmHg 75%
09:00 +21°C° 0 mm 4 mps 752 mmHg 66%
10:00 +23°C° 0 mm 5 mps 752 mmHg 57%
11:00 +25°C° 0 mm 5 mps 752 mmHg 49%
12:00 +25°C° 0 mm 5 mps 752 mmHg 45%
13:00 +26°C° 0 mm 5 mps 752 mmHg 42%
14:00 +26°C° 0 mm 5 mps 752 mmHg 38%
15:00 +25°C° 0 mm 5 mps 752 mmHg 41%
16:00 +23°C° 0 mm 6 mps 752 mmHg 43%
17:00 +22°C° 0 mm 6 mps 752 mmHg 45%
18:00 +20°C° 0 mm 5 mps 752 mmHg 51%
19:00 +18°C° 0 mm 4 mps 753 mmHg 57%
20:00 +16°C° 0 mm 3 mps 753 mmHg 64%
21:00 +16°C° 0 mm 3 mps 753 mmHg 69%
22:00 +14°C° 0 mm 3 mps 753 mmHg 74%
23:00 +13°C° 0 mm 3 mps 753 mmHg 78%

13 August, Thursday

Time Temperature Precipitation Wind Pressure Humidity
00:00 +14°C° 0 mm 2 mps 753 mmHg 80%
01:00 +13°C° 0 mm 2 mps 753 mmHg 82%
02:00 +13°C° 0 mm 2 mps 753 mmHg 84%
03:00 +13°C° 0 mm 2 mps 753 mmHg 87%
04:00 +12°C° 0 mm 2 mps 753 mmHg 90%
05:00 +12°C° 0 mm 2 mps 753 mmHg 93%
06:00 +13°C° 0 mm 3 mps 754 mmHg 82%
07:00 +17°C° 0 mm 3 mps 754 mmHg 71%
08:00 +19°C° 0 mm 3 mps 754 mmHg 60%
09:00 +20°C° 0 mm 3 mps 753 mmHg 54%
10:00 +22°C° 0 mm 3 mps 753 mmHg 47%
11:00 +24°C° 0 mm 3 mps 753 mmHg 40%
12:00 +24°C° 0 mm 3 mps 753 mmHg 40%
13:00 +24°C° 0 mm 3 mps 753 mmHg 41%
14:00 +24°C° 0 mm 3 mps 752 mmHg 41%
15:00 +22°C° 0 mm 3 mps 752 mmHg 43%
16:00 +22°C° 0 mm 3 mps 752 mmHg 46%
17:00 +21°C° 0 mm 3 mps 752 mmHg 49%
18:00 +20°C° 0 mm 3 mps 753 mmHg 55%
19:00 +19°C° 0 mm 3 mps 753 mmHg 62%
20:00 +17°C° 0 mm 3 mps 753 mmHg 69%
21:00 +16°C° 0 mm 3 mps 753 mmHg 73%
22:00 +14°C° 0 mm 3 mps 753 mmHg 76%
23:00 +13°C° 0 mm 3 mps 753 mmHg 80%

14 August, Friday

Time Temperature Precipitation Wind Pressure Humidity
00:00 +12°C° 0 mm 3 mps 753 mmHg 83%
01:00 +12°C° 0 mm 3 mps 753 mmHg 86%
02:00 +11°C° 0 mm 3 mps 753 mmHg 89%
03:00 +11°C° 0 mm 3 mps 754 mmHg 89%
04:00 +10°C° 0 mm 3 mps 754 mmHg 89%
05:00 +10°C° 0 mm 3 mps 754 mmHg 89%
06:00 +12°C° 0 mm 3 mps 754 mmHg 78%
07:00 +14°C° 0 mm 4 mps 754 mmHg 66%
08:00 +18°C° 0 mm 4 mps 754 mmHg 55%
09:00 +19°C° 0 mm 4 mps 754 mmHg 48%
10:00 +20°C° 0 mm 4 mps 754 mmHg 42%
11:00 +21°C° 0 mm 4 mps 754 mmHg 36%
12:00 +22°C° 0 mm 4 mps 754 mmHg 34%
13:00 +22°C° 0 mm 4 mps 754 mmHg 33%
14:00 +23°C° 0 mm 4 mps 754 mmHg 31%
15:00 +23°C° 0 mm 4 mps 754 mmHg 32%
16:00 +22°C° 0 mm 4 mps 753 mmHg 33%
17:00 +22°C° 0 mm 4 mps 753 mmHg 35%
18:00 +20°C° 0 mm 4 mps 754 mmHg 41%
19:00 +18°C° 0 mm 3 mps 754 mmHg 47%
20:00 +16°C° 0 mm 2 mps 754 mmHg 54%
21:00 +15°C° 0 mm 2 mps 754 mmHg 57%
22:00 +15°C° 0 mm 2 mps 754 mmHg 60%
23:00 +14°C° 0 mm 1 mps 754 mmHg 63%
Show more